Location: *
(48.6747°N, 9.3817°E)
Time: 17:43:47
(UTC+00:00)

Daily predictions for brighter satellites

Satellite Brightness Start Highest point End
(mag) Time Altitude Azimuth Time Altitude Azimuth Time Altitude Azimuth
Cosmos 1992 Rocket 4.1 16:53:04 10° S 16:58:09 55° ESE 17:03:15 10° NNE
Unknown 3.6 16:57:06 10° WSW 17:01:15 83° SSE 17:05:24 10° ENE
CZ-4C R/B 3.6 16:55:40 10° NW 17:02:44 62° SW 17:10:46 10° SSE
Cosmos 1503 Rocket 4.1 16:57:35 10° NNW 17:02:48 88° WSW 17:07:58 10° SSE
Unknown 3.6 16:58:48 10° WSW 17:02:57 85° SSE 17:07:08 10° ENE
Cosmos 2058 Rocket 3.9 16:59:51 10° SSE 17:03:37 29° E 17:07:24 10° NNE
Cosmos 921 Rocket 3.7 16:59:55 10° SSE 17:04:02 36° ESE 17:08:08 10° NE
Unknown 3.6 17:00:25 10° WSW 17:04:34 86° SSE 17:08:43 10° ENE
Unknown 3.6 17:00:54 10° WSW 17:04:59 87° NNW 17:09:07 10° ENE
Cosmos 2239 Rocket 4.5 16:59:21 10° N 17:05:30 67° ENE 17:11:36 10° SSE
Cosmos 839 Rocket 4.2 16:59:27 10° NNW 17:05:33 60° NE 17:12:16 10° SE
Unknown 3.6 17:02:06 10° WSW 17:06:16 88° SSE 17:10:26 10° ENE
Cosmos 2084 3.6 17:02:34 10° SSW 17:07:02 62° SE 17:11:27 10° NE
Okean-O 2.8 17:02:44 10° SSE 17:07:10 82° WSW 17:11:38 10° NNW
SL-4 R/B 3.3 17:05:48 10° WNW 17:09:27 36° SW 17:12:51 10° SSE
COBE Rocket 4.1 17:04:27 10° NNE 17:09:34 56° E 17:14:34 10° S
Unknown 3.7 17:06:36 10° WSW 17:10:38 73° NNW 17:14:42 10° ENE
Unknown 3.6 17:08:42 10° WSW 17:12:52 86° NNW 17:17:02 10° ENE
Cosmos 1821 Rocket 4.0 17:06:55 10° N 17:13:03 83° E 17:19:13 10° S
Cosmos 1605 Rocket 4.4 17:07:26 10° N 17:13:13 38° ENE 17:18:53 10° SE
H-2A R/B 3.6 17:09:26 10° S 17:13:15 56° W 17:17:08 10° NNW
Unknown 3.7 17:10:25 10° WSW 17:14:34 85° NNW 17:18:44 10° ENE
Gbstr 26 Del rocket 4.1 17:08:51 10° WNW 17:14:36 70° N 17:21:32 11° E
Unknown 4.1 17:11:08 10° W 17:14:44 44° N 17:18:16 10° ENE
Unknown 3.7 17:12:04 10° WSW 17:16:13 83° NNW 17:20:20 10° ENE
Unknown 3.7 17:13:42 10° WSW 17:17:51 82° NNW 17:21:54 11° ENE
Cosmos 2082 Rocket 3.3 17:13:23 10° NNW 17:18:12 27° NE 17:22:45 11° E
BREEZE M DEB (TANK) 1.7 17:16:38 10° W 17:18:45 73° SSW 17:22:56 10° ESE
Unknown 3.7 17:15:23 10° WSW 17:19:32 80° NNW 17:23:31 11° ENE
USA 116 4.2 17:16:52 10° NE 17:19:33 25° E 17:22:20 10° SSE
COSMO-SKYMED 1 2.7 17:15:24 10° NNE 17:19:40 51° E 17:23:54 10° S
EO 1 Delta rocket 4.3 17:16:15 10° SE 17:20:32 40° ENE 17:25:07 10° N
Cosmos 1703 3.7 17:16:49 10° N 17:20:34 39° ENE 17:24:16 10° SE
Unknown 3.7 17:18:45 10° WSW 17:22:53 78° NNW 17:26:45 12° ENE
COSMOS 2406 3.3 17:17:18 10° NNW 17:23:05 65° ENE 17:28:47 10° SE
Meteor 2-10 4.3 17:18:54 10° SSE 17:23:39 42° E 17:28:23 10° NNE
Nadezhda 3 Rocket 4.1 17:17:46 10° S 17:24:04 90° N 17:30:28 10° N
Cosmos 1934 Rocket 4.0 17:17:54 10° N 17:24:13 67° ENE 17:30:32 10° SSE
BREEZE-M DEB (TANK) 4.4 17:13:15 10° SSW 17:24:27 31° SSE 17:27:55 13° E
Starlink (trailer) 3.7 17:20:24 10° WSW 17:24:33 77° NNW 17:28:20 12° ENE
CSL-04 Debris 4.2 17:20:28 10° SSE 17:25:50 63° ENE 17:31:16 10° N
Unknown 3.7 17:22:04 10° WSW 17:26:12 75° NNW 17:29:55 13° ENE
Unknown 4.1 17:23:50 10° W 17:27:33 46° N 17:30:43 13° ENE
Unknown 3.7 17:23:40 10° WSW 17:27:49 74° NNW 17:31:28 13° ENE
Cosmos 1825 Rocket 4.3 17:23:45 10° NNW 17:28:03 58° W 17:32:22 10° S
H-2A R/B 3.8 17:26:15 12° ENE 17:28:15 15° NE 17:31:13 10° NNE
Cosmos 1535 Rocket 4.4 17:22:29 10° N 17:28:44 72° E 17:34:52 10° SSE
SWAS 4.4 17:24:46 10° SSW 17:28:59 66° ESE 17:33:16 10° NE
Cosmos 1953 2.7 17:25:56 10° SSW 17:29:58 68° WNW 17:34:03 10° N
Abrixas rocket 4.2 17:28:34 10° S 17:30:10 13° SE 17:31:00 12° SE
Cosmos 1953 Rocket 3.7 17:26:14 10° NNW 17:30:39 79° W 17:34:58 10° S
Unknown 4.1 17:30:09 10° W 17:33:56 48° N 17:36:57 15° ENE
YAOGAN 6 2.5 17:30:20 10° SSE 17:34:00 81° ENE 17:37:39 10° N
Unknown 3.8 17:30:10 10° WSW 17:34:17 69° NNW 17:37:40 15° ENE
Unknown 3.8 17:30:24 10° WSW 17:34:32 70° NNW 17:37:54 15° ENE
Unknown 3.8 17:31:04 10° WSW 17:35:12 69° NNW 17:38:33 15° ENE
Unknown 2.8 17:33:24 10° WNW 17:36:31 72° NNE 17:38:29 21° ESE
Unknown 3.8 17:35:01 10° WSW 17:39:08 66° NNW 17:42:18 16° ENE
Cosmos 1844 Rocket 3.0 17:33:52 10° SW 17:39:31 73° WNW 17:45:11 10° NNE
Unknown 3.9 17:35:25 10° WSW 17:39:32 66° NNW 17:42:42 17° ENE
Meteor 1-11 4.3 17:34:41 10° N 17:40:26 64° ENE 17:46:10 10° SSE
FengYun 1-2 T 4.4 17:35:19 10° SSE 17:40:58 82° WSW 17:46:37 10° NNW
Unknown 3.9 17:37:12 10° W 17:41:19 64° NNW 17:44:24 17° ENE
Cosmos 1606 Rocket 4.2 17:40:16 10° SSW 17:44:36 59° WNW 17:48:55 10° N
Unknown 3.9 17:40:31 10° W 17:44:38 62° NNW 17:47:35 18° ENE
Unknown 3.9 17:40:55 10° W 17:45:01 63° NNW 17:47:57 18° ENE
Unknown 3.4 17:43:27 10° WNW 17:45:59 42° SSW 17:47:39 18° SSE
Unknown 3.9 17:42:06 10° W 17:46:13 63° NNW 17:49:06 19° ENE
Envisat 3.7 17:43:23 10° S 17:48:21 56° W 17:53:23 10° NNW
ADEOS Rocket 4.5 17:43:04 10° NE 17:48:48 22° E 17:54:15 10° SE
Unknown 3.9 17:45:15 10° W 17:49:22 62° NNW 17:52:07 20° ENE
Meteor 1-16 Rocket 4.1 17:44:08 10° S 17:49:43 90° E 17:55:09 10° NNE
BREEZE-M DEB (TANK) 3.5 17:46:42 10° SW 17:50:29 25° SSE 17:51:13 23° SE
IRS-1A Rocket 4.4 17:47:08 10° SE 17:52:24 49° ENE 17:57:41 10° N
Unknown 4.0 17:48:45 10° W 17:52:51 59° NNW 17:55:28 21° ENE
Unknown 4.0 17:50:25 10° W 17:54:31 59° NNW 17:57:02 22° ENE
Cosmos 1908 3.2 17:50:43 10° S 17:54:33 60° E 17:58:25 10° NNE
Unknown 4.0 17:52:06 10° W 17:56:12 58° NNW 17:58:39 22° ENE
Cosmos 1461 3.2 17:52:17 10° NNW 17:56:14 47° NE 17:58:03 28° ESE
Unknown 4.0 17:53:46 10° W 17:57:52 57° NNW 18:00:15 23° ENE
ASTEX 1 3.7 17:53:08 10° N 17:58:04 70° W 18:03:00 10° SSW
Lacrosse 5 rocket 3.6 17:55:39 10° W 17:58:33 21° SW 18:01:33 10° S
FALCON 9 DEB 3.6 17:55:33 10° WNW 17:58:57 48° NNE 18:00:08 33° ENE
Cosmos 1356 3.4 17:56:29 10° SSW 17:59:55 81° W 18:03:23 10° N
Cosmos 1939 Rocket 2.8 17:56:48 10° SSE 18:00:44 65° ENE 18:04:46 10° N
Cosmos 2278 Rocket 2.4 17:55:28 10° S 18:00:51 47° ESE 18:06:18 10° NE
Unknown 4.1 17:57:07 10° W 18:01:13 56° NNW 18:03:27 25° NE
Cosmos 2084 Rocket 4.5 17:57:34 10° NNW 18:01:35 32° NE 18:02:55 26° ENE
Unknown 4.1 17:58:50 10° W 18:02:56 55° NNW 18:05:06 25° NE
DMSP B5D1-3 4.5 17:57:58 10° NNE 18:03:04 61° ESE 18:08:08 10° S
Cosmos 1812 Rocket 4.0 17:59:30 10° SSE 18:03:34 37° E 18:07:41 10° NNE
Unknown 3.4 18:00:49 10° WNW 18:04:11 53° NNE 18:05:05 39° ENE
Unknown 4.1 18:00:29 10° W 18:04:34 55° NNW 18:06:39 26° NE
Cosmos 1844 4.3 18:00:00 10° SW 18:05:39 60° WNW 18:11:24 10° NNE
Unknown 3.7 18:02:23 10° WNW 18:05:49 48° NNE 18:06:45 37° ENE
Unknown 4.1 18:02:06 10° W 18:06:10 55° NNW 18:08:13 27° NE
Unknown 4.1 18:02:31 10° W 18:06:35 54° NNW 18:08:36 27° NE
ATLAS 5 CENTAUR R/B 3.1 18:02:31 10° WSW 18:06:37 36° NW 18:11:14 10° NNE
SKYMED 2 4.4 18:03:28 10° N 18:07:43 53° WNW 18:11:57 10° SSW
Cosmos 1153 Rocket 4.4 18:01:48 10° N 18:07:54 62° ENE 18:13:58 10° SSE
Unknown 4.1 18:05:15 10° W 18:09:20 54° NNW 18:11:14 28° NE
Cosmos 489 Rocket 4.4 18:03:46 10° SSW 18:09:59 85° ESE 18:16:14 10° NNE
Unknown 4.1 18:08:39 10° W 18:12:43 53° NNW 18:14:29 30° NE
YAOGAN 1 3.5 18:08:48 10° S 18:13:00 50° W 18:17:15 10° NNW
Cosmos 1076 Rocket 3.8 18:09:01 10° N 18:13:16 46° ENE 18:14:33 35° ESE
Unknown 4.1 18:10:18 10° W 18:14:22 53° NNW 18:16:03 31° NE
Unknown 4.2 18:12:14 10° W 18:16:17 51° NNW 18:17:53 32° NE
ATLAS CENTAUR R/B 4.0 18:15:28 10° NNW 18:17:05 12° N 18:18:40 10° NNE
Unknown 4.2 18:13:36 10° W 18:17:40 52° NNW 18:19:12 33° NE
Falcon 9 debris 3.2 18:15:13 10° WNW 18:18:39 59° NNE 18:18:58 56° NE
Unknown 4.2 18:15:17 10° W 18:19:21 51° NNW 18:20:49 34° NE
Cosmos 292 Rocket 4.0 18:15:53 10° SSW 18:20:37 71° WNW 18:25:23 10° NNE
Unknown 4.2 18:18:40 10° W 18:22:43 50° N 18:24:02 35° NE
CZ-4 R/B 3.5 18:20:13 10° SSW 18:23:53 30° W 18:27:38 10° NNW
Unknown 4.2 18:20:21 10° W 18:24:24 50° N 18:25:39 36° NE
USA 238 DEB 3.9 18:19:17 10° S 18:25:36 46° ESE 18:28:53 27° ENE
USA 238 3.9 18:19:25 10° S 18:25:43 45° ESE 18:28:55 28° ENE
Unknown 4.2 18:22:02 10° W 18:26:05 50° N 18:27:15 37° NE
Unknown 4.2 18:23:43 10° W 18:27:45 49° N 18:28:51 38° NE
Unknown 3.3 18:25:21 10° WNW 18:28:48 61° NNE 18:28:48 61° NNE
Shenzhou-11 Module 4.0 18:28:19 10° WSW 18:29:46 19° SSW 18:29:46 19° SSW
Ariane Rocket 3.1 18:25:47 10° S 18:30:52 77° WSW 18:36:01 10° NNW
NOAA 11 4.5 18:25:39 10° S 18:31:04 68° WSW 18:36:31 10° NNW
Unknown 4.2 18:27:03 10° W 18:31:05 48° N 18:32:02 40° NNE
Cosmos 1726 3.9 18:28:09 10° SW 18:31:28 32° WNW 18:34:49 10° N
Lacrosse 5 1.8 18:26:25 10° NW 18:31:30 74° NNE 18:32:48 49° ESE
Unknown 4.3 18:28:33 10° W 18:32:34 48° N 18:33:27 40° NNE
Unknown 4.3 18:29:02 10° W 18:33:03 47° N 18:33:54 40° NNE
Cosmos 2061 Rocket 4.3 18:27:12 10° N 18:33:11 44° ENE 18:34:20 40° E
Unknown 4.3 18:30:40 10° W 18:34:41 47° N 18:35:29 41° NNE
Unknown 4.2 18:33:43 10° W 18:37:45 47° N 18:38:25 43° NNE
ARGOS 3.4 18:38:25 44° ENE 18:38:41 45° ENE 18:43:49 10° N
CZ-2D R/B 4.5 18:35:11 10° S 18:38:50 41° W 18:42:32 10° NNW
Cosmos 1833 Rocket 2.9 18:35:05 10° NNW 18:40:42 71° WSW 18:44:18 23° SSE
Unknown 4.2 18:37:04 10° W 18:41:05 47° N 18:41:36 44° NNE
Unknown 4.2 18:38:47 10° W 18:42:48 47° N 18:43:15 45° NNE
Unknown 4.2 18:40:25 10° W 18:44:25 46° N 18:44:48 45° NNE
Unknown 4.2 18:40:45 10° WNW 18:44:43 45° N 18:45:00 44° N
Unknown 4.2 18:42:07 10° W 18:46:08 46° N 18:46:26 45° N
SPOT 3 Rocket 3.5 18:48:34 61° ESE 18:49:06 65° ENE 18:54:17 10° N
Cosmos 1937 Rocket 4.3 18:44:41 10° N 18:48:39 35° NE 18:48:39 35° NE
Unknown 4.3 18:46:19 10° WNW 18:50:10 44° N 18:50:10 44° N
NOSS 3-2 (A) 3.4 18:45:42 10° SSW 18:51:18 53° ESE 18:51:20 53° ESE
Meteor 2-1 Rocket 4.3 18:52:17 52° ENE 18:52:17 52° ENE 18:56:54 10° NNE
Unknown 4.3 18:48:45 10° WNW 18:52:45 45° N 18:52:45 45° N
Unknown 4.3 18:49:33 10° WNW 18:52:29 42° NNW 18:52:29 42° NNW
Unknown 4.3 18:50:29 10° WNW 18:54:24 45° N 18:54:24 45° N
Cosmos 1459 Rocket 3.8 18:49:51 10° N 18:56:06 82° E 18:58:57 35° SSE
Unknown 4.4 18:52:08 10° WNW 18:55:59 45° N 18:55:59 45° N
NOSS 3-3 (A) 4.4 18:48:57 10° NW 18:56:24 90° ENE 18:59:43 41° SE
NOSS 3-3 (C) 4.4 18:49:03 10° NW 18:56:30 89° NE 18:59:47 41° SE
Cosmos 990 Rocket 4.3 18:51:43 10° NNW 18:56:14 50° NE 18:56:14 50° NE
Unknown 4.4 18:53:46 10° WNW 18:57:33 45° NNW 18:57:33 45° NNW
Cosmos 2058 3.3 18:54:37 10° N 18:58:09 61° NNW 18:58:09 61° NNW
Unknown 4.5 18:55:28 10° WNW 18:59:10 44° NNW 18:59:10 44° NNW
Gbstr 26 Del rocket 4.3 18:55:44 10° WNW 19:02:02 68° SSW 19:04:05 48° SSE
Cosmos 2082 Rocket 2.4 18:57:08 10° NNW 19:02:50 69° WSW 19:04:38 43° S
SJ 16-02 2.9 19:00:18 10° N 19:02:25 25° N 19:02:25 25° N
Resurs 01 Rocket 3.6 19:09:04 20° N 19:09:04 20° N 19:10:34 10° N
H-2A R/B 2.0 19:06:53 78° ENE 19:06:53 78° ENE 19:12:13 10° NNW
SJ-6B 4.4 19:08:58 28° NNW 19:08:58 28° NNW 19:10:51 10° NNW
Cosmos 1727 Rocket 4.5 19:02:45 10° SSW 19:08:50 59° WNW 19:14:57 10° N
Cosmos 1802 Rocket 4.0 19:09:37 10° N 19:16:06 87° W 19:17:49 53° S
Cosmos 2173 Rocket 4.2 19:13:07 10° NNW 19:19:22 70° W 19:22:02 35° SSW
Cosmos 1864 Rocket 4.4 19:16:51 10° N 19:22:21 67° NNE 19:22:21 67° NNE
Cosmos 1898 Rocket 4.0 19:28:20 10° NNW 19:32:33 56° NW 19:32:33 56° NW
ADEOS Rocket 3.4 19:27:26 10° NNE 19:35:15 89° WNW 19:42:34 10° SSW
CZ-2C R/B 3.7 19:37:01 59° N 19:37:01 59° N 19:41:41 10° NNW
Cosmos 1725 Rocket 4.0 19:31:36 10° N 19:37:15 74° NNW 19:37:15 74° NNW
Cosmos 2278 Rocket 3.6 19:39:57 10° WSW 19:45:07 35° NW 19:50:20 10° NNE
ATLAS 5 CENTAUR R/B 4.2 19:49:36 10° NW 19:52:46 17° N 19:53:19 17° N
ATLAS CENTAUR R/B 4.2 19:54:02 10° NNW 19:55:01 14° NNW 19:55:01 14° NNW
Lacrosse 5 4.1 20:09:50 10° WNW 20:12:01 21° W 20:12:01 21° W
USA 238 DEB 4.3 20:09:57 10° WSW 20:16:23 52° NW 20:16:23 52° NW
USA 238 4.3 20:10:03 10° WSW 20:16:26 53° NW 20:16:26 53° NW
